Location: *
(50.3194°N, 7.1067°E)
Time: 08:03:47
(UTC+00:00)

USA 245 - Pass Details

Date: 22 September 2019
Orbit: 266 x 999 km, 97.9° (Epoch: 04 October)

Event Time Altitude Azimuth Distance (km) Brightness Sun altitude
Exits shadow 20:14:05 63° 102° (ESE) 1,015 4.3 -25.4°
Maximum altitude 20:14:37 66° 72° (ENE) 982 4.3 -25.4°
Drops below altitude 10° 20:20:00 10° 351° (N) 2,392 7.1 -26.1°
Sets 20:22:11 0° 349° (N) 3,225 7.9 -26.4°
